• In Hungary
  • List of Countries
  • For 7 days
  • Water Temperature
  • Satellite Maps
  • Weather Map
  • News
  • Weather Widgets
  • user-avatar
    Login

    Hourly Weather Heliodorowo

    Today, 20 October, Saturday

    Time Temperature Precipitation Wind Pressure Humidity
    00:00 +11°C° 0 mm 1 mps 763 mmHg 73%
    01:00 +11°C° 0 mm 1 mps 762 mmHg 73%
    02:00 +11°C° 0 mm 1 mps 762 mmHg 74%
    03:00 +11°C° 0 mm 1 mps 762 mmHg 76%
    04:00 +10°C° 0 mm 2 mps 762 mmHg 77%
    05:00 +10°C° 0 mm 2 mps 763 mmHg 79%
    06:00 +9°C° 0 mm 2 mps 763 mmHg 82%
    07:00 +9°C° 0 mm 2 mps 763 mmHg 84%
    08:00 +10°C° 0 mm 3 mps 763 mmHg 79%
    09:00 +10°C° 0 mm 3 mps 763 mmHg 73%
    10:00 +11°C° 0 mm 3 mps 763 mmHg 68%
    11:00 +12°C° 0 mm 3 mps 763 mmHg 65%
    12:00 +12°C° 0 mm 4 mps 763 mmHg 62%
    13:00 +12°C° 0 mm 4 mps 763 mmHg 59%
    14:00 +12°C° 0.1 mm 4 mps 763 mmHg 61%
    15:00 +11°C° 0.1 mm 4 mps 763 mmHg 63%
    16:00 +11°C° 0.1 mm 4 mps 763 mmHg 65%
    17:00 +10°C° 0 mm 3 mps 763 mmHg 68%
    18:00 +10°C° 0 mm 3 mps 764 mmHg 71%
    19:00 +9°C° 0 mm 2 mps 764 mmHg 73%
    20:00 +9°C° 0 mm 2 mps 764 mmHg 76%
    21:00 +9°C° 0 mm 2 mps 764 mmHg 79%
    22:00 +8°C° 0 mm 2 mps 764 mmHg 81%
    23:00 +8°C° 0 mm 2 mps 764 mmHg 85%

    Tomorrow, 21 October, Sunday

    Time Temperature Precipitation Wind Pressure Humidity
    00:00 +8°C° 0 mm 1 mps 764 mmHg 88%
    01:00 +8°C° 0 mm 1 mps 764 mmHg 91%
    02:00 +8°C° 0 mm 1 mps 764 mmHg 92%
    03:00 +7°C° 0 mm 1 mps 764 mmHg 93%
    04:00 +7°C° 0 mm 1 mps 764 mmHg 94%
    05:00 +7°C° 0 mm 1 mps 764 mmHg 94%
    06:00 +7°C° 0 mm 1 mps 765 mmHg 95%
    07:00 +7°C° 0 mm 1 mps 765 mmHg 95%
    08:00 +9°C° 0 mm 1 mps 765 mmHg 89%
    09:00 +10°C° 0 mm 1 mps 765 mmHg 82%
    10:00 +12°C° 0 mm 1 mps 765 mmHg 75%
    11:00 +13°C° 0 mm 1 mps 765 mmHg 71%
    12:00 +14°C° 0 mm 1 mps 765 mmHg 66%
    13:00 +14°C° 0 mm 1 mps 765 mmHg 61%
    14:00 +14°C° 0 mm 1 mps 765 mmHg 62%
    15:00 +14°C° 0 mm 1 mps 765 mmHg 64%
    16:00 +13°C° 0 mm 1 mps 765 mmHg 66%
    17:00 +12°C° 0 mm 1 mps 765 mmHg 70%
    18:00 +11°C° 0 mm 1 mps 765 mmHg 75%
    19:00 +10°C° 0 mm 1 mps 765 mmHg 79%
    20:00 +10°C° 0 mm 1 mps 765 mmHg 82%
    21:00 +9°C° 0 mm 1 mps 765 mmHg 84%
    22:00 +8°C° 0 mm 2 mps 765 mmHg 86%
    23:00 +8°C° 0 mm 2 mps 765 mmHg 88%

    Day after tomorrow, 22 October, Monday

    Time Temperature Precipitation Wind Pressure Humidity
    00:00 +7°C° 0 mm 2 mps 765 mmHg 89%
    01:00 +7°C° 0 mm 2 mps 764 mmHg 90%
    02:00 +7°C° 0 mm 2 mps 764 mmHg 91%
    03:00 +6°C° 0 mm 2 mps 764 mmHg 91%
    04:00 +6°C° 0 mm 2 mps 764 mmHg 92%
    05:00 +6°C° 0 mm 2 mps 763 mmHg 92%
    06:00 +6°C° 0 mm 2 mps 763 mmHg 92%
    07:00 +6°C° 0 mm 2 mps 763 mmHg 92%
    08:00 +7°C° 0 mm 3 mps 763 mmHg 85%
    09:00 +9°C° 0 mm 3 mps 763 mmHg 77%
    10:00 +11°C° 0 mm 4 mps 763 mmHg 70%
    11:00 +11°C° 0.1 mm 4 mps 762 mmHg 69%
    12:00 +11°C° 0.1 mm 4 mps 762 mmHg 68%
    13:00 +12°C° 0.1 mm 4 mps 762 mmHg 68%
    14:00 +11°C° 0.5 mm 4 mps 762 mmHg 73%
    15:00 +10°C° 0.5 mm 4 mps 761 mmHg 78%
    16:00 +10°C° 0.5 mm 4 mps 761 mmHg 83%
    17:00 +8°C° 0.4 mm 4 mps 762 mmHg 81%
    18:00 +8°C° 0.4 mm 4 mps 762 mmHg 79%
    19:00 +8°C° 0.4 mm 4 mps 762 mmHg 78%
    20:00 +7°C° 0 mm 4 mps 762 mmHg 77%
    21:00 +8°C° 0 mm 3 mps 762 mmHg 77%
    22:00 +7°C° 0 mm 3 mps 763 mmHg 76%
    23:00 +7°C° 0 mm 3 mps 763 mmHg 79%

    23 October, Tuesday

    Time Temperature Precipitation Wind Pressure Humidity
    00:00 +5°C° 0 mm 3 mps 763 mmHg 81%
    01:00 +4°C° 0 mm 3 mps 763 mmHg 83%
    02:00 +4°C° 0 mm 3 mps 762 mmHg 84%
    03:00 +4°C° 0 mm 3 mps 762 mmHg 85%
    04:00 +4°C° 0 mm 4 mps 762 mmHg 86%
    05:00 +4°C° 0 mm 4 mps 761 mmHg 86%
    06:00 +4°C° 0 mm 4 mps 761 mmHg 86%
    07:00 +4°C° 0 mm 4 mps 760 mmHg 86%
    08:00 +5°C° 0 mm 5 mps 760 mmHg 82%
    09:00 +5°C° 0 mm 6 mps 759 mmHg 77%
    10:00 +6°C° 0 mm 7 mps 758 mmHg 72%
    11:00 +6°C° 0.5 mm 8 mps 757 mmHg 75%
    12:00 +6°C° 0.5 mm 8 mps 756 mmHg 77%
    13:00 +6°C° 0.5 mm 9 mps 754 mmHg 79%
    14:00 +6°C° 1.1 mm 9 mps 753 mmHg 80%
    15:00 +6°C° 1.1 mm 9 mps 751 mmHg 82%
    16:00 +6°C° 1.1 mm 10 mps 750 mmHg 84%
    17:00 +6°C° 1.4 mm 10 mps 748 mmHg 84%
    18:00 +7°C° 1.4 mm 10 mps 747 mmHg 85%
    19:00 +8°C° 1.4 mm 10 mps 745 mmHg 85%
    20:00 +8°C° 1.4 mm 10 mps 744 mmHg 85%
    21:00 +9°C° 1.4 mm 10 mps 744 mmHg 84%
    22:00 +11°C° 1.4 mm 10 mps 743 mmHg 83%
    23:00 +10°C° 0.4 mm 9 mps 743 mmHg 80%

    24 October, Wednesday

    Time Temperature Precipitation Wind Pressure Humidity
    00:00 +10°C° 0.4 mm 9 mps 743 mmHg 77%
    01:00 +8°C° 0.4 mm 9 mps 743 mmHg 74%
    02:00 +8°C° 0.1 mm 9 mps 744 mmHg 73%
    03:00 +7°C° 0.1 mm 9 mps 744 mmHg 72%
    04:00 +7°C° 0.1 mm 9 mps 745 mmHg 71%
    05:00 +6°C° 0 mm 8 mps 746 mmHg 67%
    06:00 +4°C° 0 mm 7 mps 747 mmHg 63%
    07:00 +3°C° 0 mm 7 mps 748 mmHg 59%
    08:00 +4°C° 0 mm 8 mps 749 mmHg 55%
    09:00 +5°C° 0 mm 8 mps 749 mmHg 51%
    10:00 +6°C° 0 mm 9 mps 750 mmHg 47%
    11:00 +6°C° 0 mm 9 mps 750 mmHg 46%
    12:00 +7°C° 0 mm 9 mps 751 mmHg 44%
    13:00 +7°C° 0 mm 9 mps 751 mmHg 42%
    14:00 +6°C° 0 mm 8 mps 751 mmHg 44%
    15:00 +7°C° 0 mm 6 mps 752 mmHg 46%
    16:00 +7°C° 0 mm 5 mps 752 mmHg 48%
    17:00 +6°C° 0 mm 5 mps 752 mmHg 51%
    18:00 +5°C° 0 mm 4 mps 752 mmHg 54%
    19:00 +4°C° 0 mm 4 mps 753 mmHg 57%
    20:00 +4°C° 0 mm 4 mps 753 mmHg 59%
    21:00 +4°C° 0 mm 3 mps 753 mmHg 62%
    22:00 +4°C° 0 mm 3 mps 753 mmHg 65%
    23:00 +4°C° 0 mm 3 mps 753 mmHg 68%

    25 October, Thursday

    Time Temperature Precipitation Wind Pressure Humidity
    00:00 +3°C° 0 mm 3 mps 753 mmHg 71%
    01:00 +3°C° 0 mm 3 mps 752 mmHg 75%
    02:00 +3°C° 0 mm 3 mps 752 mmHg 77%
    03:00 +3°C° 0 mm 3 mps 752 mmHg 78%
    04:00 +4°C° 0 mm 3 mps 752 mmHg 80%
    05:00 +5°C° 0.3 mm 3 mps 752 mmHg 84%
    06:00 +6°C° 0.3 mm 4 mps 751 mmHg 88%
    07:00 +6°C° 0.3 mm 4 mps 751 mmHg 91%
    08:00 +8°C° 0.2 mm 5 mps 751 mmHg 88%
    09:00 +9°C° 0.2 mm 6 mps 751 mmHg 86%
    10:00 +10°C° 0.2 mm 7 mps 750 mmHg 83%
    11:00 +10°C° 0.1 mm 8 mps 750 mmHg 78%
    12:00 +10°C° 0.1 mm 8 mps 750 mmHg 74%
    13:00 +11°C° 0.1 mm 8 mps 750 mmHg 70%
    14:00 +10°C° 0.1 mm 8 mps 750 mmHg 74%
    15:00 +10°C° 0.1 mm 8 mps 750 mmHg 78%
    16:00 +10°C° 0.1 mm 7 mps 749 mmHg 82%
    17:00 +10°C° 0.2 mm 7 mps 749 mmHg 82%
    18:00 +10°C° 0.2 mm 7 mps 749 mmHg 81%
    19:00 +10°C° 0.2 mm 7 mps 749 mmHg 81%
    20:00 +10°C° 0.1 mm 7 mps 749 mmHg 81%
    21:00 +10°C° 0.1 mm 7 mps 749 mmHg 81%
    22:00 +10°C° 0.1 mm 7 mps 749 mmHg 82%
    23:00 +10°C° 0.1 mm 8 mps 749 mmHg 82%
    Show more